Wind_Speed
15 16 16 16 16 15 16 16 16 16 15 14 12 11 11 11 10 9 9 9 10 11 12 11 11 11 10 9 9 9 9 9 10 11 12 12 12 11 11 11 11 12 12 13
16 17 17 17 17 17 17 16 16 16 16 15 13 12 11 11 11 11 10 10 11 12 11 12 11 10 10 10 10 9 10 10 11 12 13 12 11 10 10 11 12 12 12 12
18 18 18 18 16 17 17 16 16 16 15 14 13 12 12 12 12 12 12 11 11 11 12 11 11 11 11 12 12 11 11 11 12 12 12 11 11 11 11 12 13 13 13 14
21 20 20 17 17 17 17 17 15 15 14 14 14 13 13 13 13 13 13 13 14 13 12 12 12 13 13 12 12 12 13 13 13 13 12 12 12 13 13 14 14 14 14 15
21 20 20 17 16 17 17 16 16 15 15 15 16 15 14 14 14 14 14 15 15 15 15 15 14 14 13 13 13 14 14 14 14 14 14 14 14 14 15 15 15 15 16 17
21 22 21 18 18 17 17 17 16 16 16 16 17 17 16 15 16 16 16 16 16 16 16 16 15 14 14 14 15 15 15 15 15 15 15 15 16 16 16 16 16 17 17 17
22 22 21 19 19 18 19 18 17 17 17 17 17 17 18 18 18 18 18 18 17 17 17 15 15 15 15 15 15 16 16 16 16 16 17 16 16 16 17 17 17 18 18 18
23 23 22 20 21 21 20 19 19 19 19 19 19 19 19 19 19 19 17 18 18 17 18 17 17 16 16 16 16 16 16 16 17 17 17 17 17 17 17 17 18 18 18 18
23 23 22 23 23 22 21 20 21 21 21 21 20 19 20 20 20 19 19 19 18 18 18 18 17 17 17 16 16 16 16 16 16 16 17 17 16 16 17 17 17 17 17 16
25 24 24 24 23 23 22 21 22 23 23 23 22 21 21 21 20 18 18 19 19 18 18 19 18 18 17 17 17 16 16 16 16 16 16 15 15 16 16 16 16 16 16 16
26 25 25 24 24 23 23 23 24 24 24 23 22 22 21 21 20 19 18 19 19 19 20 20 19 18 17 17 17 17 17 16 16 15 15 15 15 15 16 16 16 15 16 16
25 24 24 24 24 24 24 24 24 23 24 23 23 23 22 21 21 21 21 20 20 20 20 20 19 19 18 18 18 17 16 16 15 15 15 15 15 15 16 16 16 15 16 17
24 23 23 23 24 24 24 24 23 22 22 23 23 23 24 24 23 23 22 21 20 19 19 19 19 18 17 17 17 17 16 16 16 15 15 15 15 16 16 16 16 16 17 17
24 24 23 22 23 24 23 23 23 22 22 22 22 23 23 23 23 23 23 22 21 20 19 19 18 18 17 17 17 17 16 16 16 16 16 16 16 16 16 16 16 16 17 17
24 23 22 22 23 24 23 22 22 22 22 22 21 21 21 21 22 22 22 22 22 21 20 20 19 18 18 18 17 17 16 16 16 16 16 16 16 16 16 16 16 16 16 16
24 24 23 23 23 23 22 23 22 22 22 21 21 21 20 20 20 20 20 20 20 20 20 20 19 19 18 18 17 17 17 16 16 16 16 15 15 15 15 16 16 16 17 17
23 24 24 23 22 22 23 22 23 22 22 22 21 21 21 20 20 19 19 19 19 19 19 19 19 19 19 18 18 17 17 17 16 16 16 16 16 16 16 16 17 17 17 17
21 23 24 23 22 21 22 22 22 21 21 21 21 21 21 20 19 19 19 19 19 18 19 19 19 19 19 19 18 18 18 17 16 16 16 15 15 16 16 16 17 17 16 17
21 21 22 22 23 22 22 22 22 21 21 21 21 21 21 20 20 19 19 18 18 18 18 18 18 19 19 18 18 18 17 17 17 17 16 16 16 16 17 17 17 17 17 17
19 19 19 20 20 21 21 21 21 21 21 20 20 20 20 20 19 19 19 19 18 18 18 18 18 18 18 18 18 18 18 17 17 17 16 15 16 17 17 17 17 17 17 17
20 19 19 19 19 19 20 20 20 20 21 20 19 19 19 19 19 18 18 18 18 18 18 19 19 18 18 17 17 17 17 17 17 17 16 15 16 16 17 17 17 17 17 17
20 19 19 19 19 19 20 20 20 19 19 20 20 19 19 20 19 19 19 19 19 19 19 19 18 18 17 17 16 16 17 16 16 16 16 16 16 16 17 17 17 17 17 17
19 19 18 18 19 20 20 19 19 19 19 19 20 20 19 19 19 19 19 19 19 19 19 18 18 17 17 17 17 17 17 16 16 16 16 17 16 16 16 16 17 17 17 16
19 19 19 19 19 19 19 19 18 19 19 19 19 20 19 19 18 18 18 18 18 18 18 19 19 19 19 18 18 18 18 17 16 16 16 16 16 16 16 16 16 16 16 16
18 18 17 17 17 17 18 17 17 18 18 19 19 19 19 18 18 18 19 18 18 18 18 19 19 19 19 19 19 19 18 17 16 16 16 16 16 16 16 16 16 16 16 16
18 17 18 17 17 17 17 18 18 18 18 18 18 18 17 18 19 19 19 19 19 19 18 18 19 19 20 20 19 18 18 17 17 17 17 16 16 16 16 16 15 15 15 15
17 17 17 17 17 17 17 17 18 18 18 18 18 18 18 18 19 19 19 19 19 20 19 19 19 19 19 19 18 18 18 18 18 17 17 17 17 17 16 15 15 15 15 15
Wind_Direction
266 267 271 274 275 275 278 281 285 291 292 293 297 300 303 301 298 300 297 297 296 290 285 289 291 292 290 290 294 301 302 300 297 297 299 298 294 290 291 291 292 294 297 298
266 265 268 272 276 277 278 280 281 285 287 292 292 293 294 297 300 305 304 297 296 292 294 294 292 293 293 292 292 298 301 300 299 299 299 298 295 293 291 291 294 297 301 303
270 269 272 274 276 276 278 279 279 280 282 288 289 286 289 293 296 299 302 300 300 294 294 299 293 290 292 293 294 297 297 294 294 296 297 295 294 292 292 293 295 298 301 303
272 272 272 275 275 275 276 278 276 275 277 284 286 286 286 289 293 296 299 300 301 296 294 294 292 289 287 288 291 293 294 294 295 295 295 293 293 292 293 294 295 297 300 301
274 275 275 273 273 273 274 275 278 278 278 281 283 283 284 287 291 294 295 297 298 295 292 293 290 287 285 286 289 292 293 293 292 291 292 290 290 291 292 293 295 297 299 302
271 272 273 273 274 273 273 272 274 275 279 281 281 281 284 287 289 289 291 293 294 290 290 291 287 285 283 286 287 289 290 290 290 290 290 290 289 290 291 293 295 297 299 300
268 270 270 272 272 274 273 272 272 273 275 278 278 279 282 283 284 288 289 291 289 286 283 285 284 284 283 284 286 287 288 288 290 289 289 288 288 289 291 293 295 296 296 298
267 268 269 271 270 272 274 272 271 272 273 275 277 279 282 282 284 288 287 287 288 285 283 283 285 287 286 285 285 287 288 288 289 287 287 287 288 289 291 294 296 297 298 299
265 268 269 266 268 269 269 268 270 272 273 275 276 277 281 281 281 282 281 283 284 282 282 285 285 285 284 283 284 286 287 288 289 289 288 288 288 289 291 294 296 297 299 299
265 266 266 266 267 268 265 266 267 270 272 274 273 274 275 277 278 279 277 279 280 278 279 282 285 284 283 282 284 288 290 290 291 290 289 289 290 291 293 295 296 297 298 300
262 264 263 264 266 268 268 268 268 267 269 269 270 269 272 270 270 274 277 278 278 277 279 281 281 281 282 282 282 285 287 288 289 291 290 290 292 295 297 297 298 299 299 301
259 260 261 262 264 265 266 268 269 268 269 269 270 271 271 272 273 276 279 277 275 275 279 280 279 279 279 280 282 284 286 286 286 289 290 290 293 296 299 300 299 299 300 302
261 260 260 260 261 262 263 265 265 266 268 270 272 272 273 276 278 279 280 278 278 277 276 276 278 278 279 280 282 282 283 283 285 287 289 290 293 296 296 298 299 299 299 302
260 260 261 262 261 261 263 263 265 269 271 274 273 273 274 276 277 278 280 279 279 276 274 276 278 278 278 280 280 279 279 280 284 286 287 289 293 295 294 295 297 297 298 300
257 258 260 262 262 262 262 264 266 271 273 272 271 272 273 275 276 277 279 279 277 276 274 276 277 275 276 277 278 277 276 277 280 284 286 288 291 294 294 295 296 297 298 300
256 257 258 259 260 260 262 263 264 267 268 270 271 272 274 275 277 277 276 277 276 276 275 274 274 274 274 274 275 275 276 277 278 281 284 285 289 291 293 295 297 298 298 299
257 255 255 255 257 259 261 261 261 264 266 269 272 273 274 275 276 277 276 275 275 274 272 272 272 273 272 271 271 272 274 275 274 277 279 282 286 288 290 292 296 298 298 300
259 256 256 258 260 258 259 261 263 265 267 269 271 272 274 274 274 274 274 274 273 272 273 274 275 276 273 271 271 271 273 272 274 277 279 281 284 287 290 292 294 297 298 301
260 260 258 260 261 261 261 262 265 267 269 271 270 270 272 272 273 273 272 271 270 269 271 273 276 277 273 273 275 276 274 274 275 277 278 279 282 285 288 290 292 293 295 298
261 261 261 263 261 260 262 263 265 267 269 271 271 269 270 271 270 271 271 270 270 270 273 274 275 276 274 274 274 274 273 274 276 279 279 278 280 283 286 288 289 291 293 296
265 263 261 260 260 261 263 263 262 263 264 268 268 267 267 268 270 270 270 271 270 271 272 274 273 273 274 274 274 273 273 274 275 277 277 277 278 281 284 286 287 288 291 294
263 260 260 261 262 263 263 262 261 261 261 264 266 268 270 269 268 268 270 271 270 270 272 274 274 273 274 274 272 274 277 278 276 274 275 277 278 279 283 286 287 288 288 290
263 261 261 264 265 263 263 260 258 258 260 263 265 266 269 268 267 267 268 268 268 268 269 270 271 272 273 274 275 276 278 278 276 275 277 277 277 280 283 284 285 286 287 289
264 263 263 262 260 258 259 260 259 259 261 263 264 265 266 266 264 264 265 267 268 267 267 268 268 270 273 275 276 276 277 277 276 275 275 278 279 280 281 283 285 287 288 289
259 257 254 254 255 254 254 256 258 260 260 261 263 265 264 263 262 264 265 267 268 268 267 267 268 270 272 274 272 272 274 275 274 273 273 276 277 279 281 283 284 286 288 289
255 252 251 254 258 257 255 255 257 257 257 260 263 264 264 264 263 264 264 265 266 267 267 266 268 270 272 272 271 269 270 271 271 272 272 273 274 276 279 282 283 285 288 289
256 253 253 256 259 257 255 255 257 258 258 259 262 262 264 266 268 266 266 266 266 266 267 268 270 270 270 269 268 268 270 270 270 272 271 271 273 276 278 281 282 282 283 287
Height
5804 5804 5803 5803 5803 5804 5803 5801 5800 5799 5798 5797 5795 5794 5794 5793 5792 5791 5790 5790 5789 5788 5787 5786 5785 5784 5783 5782 5781 5779 5778 5777 5776 5775 5774 5773 5771 5770 5769 5768 5767 5765 5764 5762
5800 5799 5799 5799 5799 5798 5798 5797 5796 5795 5794 5794 5793 5792 5791 5791 5790 5789 5788 5787 5786 5785 5784 5783 5782 5781 5780 5778 5777 5776 5776 5775 5774 5773 5771 5769 5768 5767 5766 5764 5763 5762 5760 5758
5794 5794 5793 5794 5795 5793 5793 5792 5791 5790 5791 5790 5790 5790 5789 5788 5787 5786 5786 5785 5784 5782 5781 5779 5778 5778 5777 5776 5774 5773 5773 5772 5771 5769 5768 5766 5765 5763 5762 5761 5760 5758 5756 5754
5788 5789 5788 5791 5789 5788 5787 5787 5787 5786 5786 5786 5786 5786 5785 5785 5784 5783 5783 5782 5781 5779 5778 5777 5776 5774 5773 5772 5771 5770 5769 5768 5767 5766 5764 5763 5761 5760 5759 5757 5756 5754 5752 5750
5782 5781 5781 5783 5783 5782 5782 5782 5782 5782 5783 5782 5782 5782 5781 5781 5780 5780 5779 5778 5777 5775 5774 5773 5772 5770 5769 5769 5768 5767 5765 5764 5763 5762 5760 5759 5757 5756 5754 5753 5751 5749 5747 5745
5776 5776 5776 5778 5777 5777 5778 5777 5777 5778 5778 5778 5778 5777 5777 5776 5775 5775 5774 5773 5772 5770 5770 5769 5768 5766 5766 5764 5763 5762 5761 5760 5758 5757 5755 5754 5752 5751 5750 5748 5746 5744 5742 5741
5770 5769 5770 5771 5771 5772 5773 5773 5773 5772 5773 5773 5772 5772 5772 5771 5770 5769 5769 5768 5767 5766 5765 5764 5763 5762 5761 5760 5759 5757 5756 5755 5754 5752 5750 5749 5747 5746 5744 5743 5741 5739 5737 5736
5764 5764 5766 5765 5765 5766 5767 5766 5766 5766 5767 5767 5767 5767 5767 5766 5765 5764 5763 5763 5762 5761 5760 5760 5758 5757 5756 5755 5754 5752 5751 5750 5748 5747 5745 5744 5742 5741 5739 5737 5735 5734 5732 5730
5757 5759 5758 5758 5758 5759 5760 5760 5760 5760 5761 5761 5761 5761 5761 5761 5759 5758 5758 5757 5756 5755 5754 5754 5753 5752 5751 5750 5748 5747 5745 5744 5743 5742 5740 5738 5737 5735 5733 5732 5730 5728 5727 5724
5750 5750 5751 5751 5751 5752 5752 5753 5754 5754 5754 5755 5755 5755 5755 5755 5754 5752 5752 5751 5751 5749 5749 5748 5747 5746 5745 5744 5743 5742 5740 5739 5737 5736 5735 5733 5731 5730 5728 5726 5725 5723 5721 5719
5742 5743 5744 5744 5744 5745 5745 5746 5747 5747 5748 5748 5748 5749 5749 5748 5747 5746 5745 5745 5744 5744 5743 5742 5741 5740 5740 5739 5738 5737 5735 5734 5732 5731 5730 5728 5726 5725 5723 5721 5720 5718 5716 5714
5735 5736 5736 5737 5738 5738 5738 5739 5740 5740 5740 5740 5741 5741 5741 5741 5740 5739 5739 5738 5738 5737 5736 5736 5735 5735 5734 5733 5732 5731 5730 5729 5728 5726 5725 5723 5722 5720 5718 5717 5715 5713 5711 5709
5727 5728 5728 5730 5730 5731 5731 5732 5732 5733 5733 5733 5733 5733 5733 5733 5733 5732 5732 5731 5731 5730 5730 5729 5729 5728 5728 5727 5726 5726 5725 5724 5723 5721 5720 5718 5717 5716 5714 5712 5710 5709 5707 5705
5719 5720 5721 5722 5723 5724 5724 5725 5725 5726 5726 5726 5726 5726 5726 5726 5726 5725 5724 5724 5724 5723 5723 5723 5722 5722 5721 5721 5720 5720 5719 5718 5717 5716 5715 5713 5712 5711 5709 5708 5706 5704 5702 5700
5712 5712 5713 5714 5715 5716 5717 5717 5718 5718 5719 5719 5719 5719 5718 5718 5718 5718 5717 5717 5716 5716 5716 5716 5716 5716 5715 5715 5714 5714 5713 5713 5712 5711 5710 5708 5707 5706 5705 5703 5701 5700 5697 5696
5704 5705 5706 5707 5708 5709 5710 5711 5711 5712 5712 5712 5712 5712 5712 5712 5711 5711 5710 5710 5710 5709 5709 5709 5709 5709 5709 5709 5708 5708 5708 5707 5706 5705 5704 5703 5702 5701 5700 5698 5697 5695 5693 5691
5697 5698 5699 5700 5701 5702 5702 5703 5704 5705 5705 5705 5705 5705 5706 5706 5705 5705 5704 5703 5703 5703 5703 5703 5703 5703 5703 5702 5702 5702 5702 5701 5700 5700 5699 5698 5697 5696 5695 5693 5692 5690 5688 5686
5690 5691 5692 5692 5694 5694 5695 5696 5697 5698 5698 5699 5699 5699 5699 5699 5698 5698 5698 5697 5697 5697 5696 5696 5696 5696 5696 5696 5696 5696 5695 5695 5694 5694 5693 5693 5692 5691 5690 5689 5687 5686 5684 5681
5683 5684 5684 5685 5686 5688 5688 5689 5690 5691 5692 5692 5692 5692 5692 5692 5692 5691 5691 5691 5691 5691 5691 5690 5690 5690 5690 5690 5690 5690 5690 5689 5689 5688 5687 5687 5686 5686 5685 5684 5682 5681 5679 5677
5676 5677 5678 5678 5679 5681 5682 5683 5684 5684 5685 5685 5685 5685 5685 5685 5685 5685 5685 5684 5685 5685 5685 5685 5684 5684 5684 5684 5684 5684 5684 5683 5683 5682 5682 5681 5681 5680 5679 5678 5677 5675 5674 5672
5670 5671 5671 5672 5673 5674 5675 5676 5677 5677 5678 5678 5678 5678 5679 5679 5678 5679 5679 5679 5679 5679 5679 5679 5679 5679 5678 5678 5678 5678 5677 5677 5677 5676 5676 5676 5675 5675 5673 5672 5671 5670 5669 5667
5664 5664 5665 5665 5666 5667 5668 5669 5670 5671 5671 5671 5672 5672 5672 5672 5672 5672 5672 5673 5673 5673 5673 5673 5673 5673 5673 5673 5672 5672 5672 5671 5671 5671 5671 5670 5670 5669 5668 5667 5666 5665 5663 5661
5658 5658 5659 5659 5660 5661 5661 5662 5663 5664 5664 5665 5665 5665 5665 5665 5666 5666 5666 5666 5666 5667 5667 5667 5667 5667 5667 5667 5666 5666 5666 5666 5666 5666 5666 5665 5664 5663 5662 5661 5660 5659 5657 5656
5652 5653 5653 5653 5654 5654 5655 5656 5657 5657 5658 5658 5658 5658 5659 5659 5660 5660 5660 5660 5660 5661 5661 5661 5661 5661 5661 5661 5661 5661 5661 5661 5661 5660 5660 5659 5659 5657 5656 5655 5654 5653 5652 5651
5646 5646 5647 5647 5648 5648 5649 5649 5650 5651 5652 5652 5652 5652 5652 5653 5653 5654 5654 5654 5655 5655 5655 5655 5655 5655 5655 5655 5655 5655 5655 5655 5655 5654 5654 5653 5653 5652 5651 5650 5649 5648 5646 5645
5639 5640 5641 5642 5642 5642 5643 5644 5644 5645 5645 5646 5646 5646 5647 5647 5647 5647 5647 5648 5648 5648 5648 5648 5649 5649 5649 5649 5649 5649 5649 5649 5648 5648 5647 5647 5646 5646 5645 5644 5643 5642 5641 5640
5633 5634 5635 5635 5636 5636 5637 5638 5638 5639 5639 5640 5640 5640 5640 5640 5640 5640 5641 5641 5641 5642 5642 5642 5642 5642 5642 5642 5643 5642 5642 5642 5642 5642 5641 5641 5640 5640 5639 5638 5637 5636 5636 5634